SL-14 R/B, 22693

Orbit data source: Space-Track

SL-14 R/B, 22693 is space debris in LEO originally from a launch on Thu, 24 Jun 1993 UTC launched from the Plesetsk Missile And Space Complex (PKMTR). Debris objects in space refer to the collection of defunct objects orbiting the Earth. Examples of debris include non-operational satellites, rocket bodies, and fragments generated from explosions, collisions, or faulty payload assembly.

Loading next visibility...
Identifier
22693, 1993-038G
Orbit
LEO
Country
Flag of CISCIS
Related business
Manufacturer
Yuzhnoe
Mission
Spacecraft
Bus & Motor
S5M, Unknown motor
Mass
1,600 kg wet, 1,600 kg dry
Launch date (UTC)
1993-06-24 (32 years ago)
Launch vehicle
Unknown
Launch site
Plesetsk Missile And Space Complex (PKMTR)
Object type
Payload
Rocket body
Debris
Shape & HBR
Cyl, 1.4 m
Radar Cross Section
7.351 m², Large (>1 m²)

Expand to show TLE details & history
Last TLE update: 13 hours ago

TLE from 13 hours ago
0 SL-14 R/B
1 22693U 93038G   25258.86583404 -.00000007  00000-0 -10521-3 0  9996
2 22693  82.5898 162.1498 0045128 216.1710 213.3691 12.54831755476613
Epoch: 2025-09-15T20:46Z
TLE epoch observation values (Epoch: 2025-09-15T20:46:48.061Z)
Latitude
68.10216°
Longitude
-125.83199°
Altitude
1,485.644 km
Speed
7.113 km/s
True Right ascension
12h 03m 43s
True Declination
67° 59' 38"
Sunlit
Object was in daylight at epoch
Visualization orbit readout
Latitude
Unknown
Longitude
Unknown
Altitude
Unknown
Speed
Unknown
Apparent Right ascension
Unknown
Apparent Declination
Unknown
Sunlit
N/A
Visualization observer readout
Local Sidereal Time
02:36:18
Azimuth
Unknown
Elevation
Unknown
Doppler factor
Unknown
Orbital elements
Apogee altitude
1,476.97 km
Perigee altitude
1,406.391 km
Semi-major axis
7,819.818 km
Eccentricity
0.00451
Inclination
82.5898°
RAAN
162.1498°
Arg. of periapsis
216.171°
True anomaly
213.086°
Mean anomaly
213.3691°
Eccentric anomaly
213.22742°
Mean motion
3.13869 °/min
Orbital period
114.7 mins
BSTAR
-0.00010521
Loading maneuver chart data...
Computing Atmospheric mass density...
Loading historical data...
Loading historical data...
Loading historical data...
Loading historical data...
Loading historical data...
Loading historical data...
Loading historical data...

Documentation

Showing up to 5 results
|